QPF
0.17 0.21 0.23 0.21 0.18 0.18 0.17 0.17 0.16 0.13 0.10 0.07 0.06 0.05 0.03 0.02 0.01 0.01 0.01 0.01 0.01 0.01 0.01 0.01 0.01 0.01 0.02 0.01 0.01 0.02 0.04 0.05 0.04 0.03 0.04 0.04 0.06 0.08 0.09 0.08 0.07 0.06 0.05
0.22 0.25 0.29 0.26 0.20 0.17 0.14 0.12 0.10 0.09 0.07 0.05 0.04 0.03 0.02 0.01 0.01 0.01 0.01 0.01 0.01 0.01 0.01 0.01 0.01 0.01 0.01 0.00 0.01 0.01 0.01 0.01 0.02 0.02 0.03 0.04 0.06 0.08 0.08 0.08 0.06 0.06 0.07
0.29 0.30 0.28 0.29 0.25 0.19 0.13 0.10 0.08 0.07 0.05 0.03 0.02 0.01 0.01 0.01 0.01 0.01 0.01 0.01 0.01 0.00 0.00 0.00 0.01 0.01 0.01 0.01 0.00 0.00 0.00 0.00 0.01 0.02 0.03 0.05 0.08 0.07 0.07 0.07 0.06 0.08 0.07
0.29 0.28 0.26 0.23 0.21 0.19 0.16 0.13 0.10 0.07 0.04 0.02 0.01 0.01 0.01 0.01 0.01 0.01 0.01 0.00 0.00 0.00 0.00 0.00 0.00 0.00 0.00 0.00 0.00 0.00 0.00 0.00 0.01 0.02 0.03 0.05 0.06 0.06 0.05 0.06 0.07 0.09 0.09
0.26 0.24 0.21 0.20 0.17 0.15 0.11 0.08 0.07 0.04 0.03 0.02 0.01 0.00 0.00 0.00 0.00 0.00 0.00 0.00 0.00 0.00 0.00 0.00 0.00 0.00 0.00 0.00 0.00 0.00 0.00 0.00 0.00 0.01 0.02 0.02 0.02 0.02 0.03 0.04 0.06 0.11 0.13
0.16 0.16 0.16 0.14 0.13 0.14 0.10 0.06 0.04 0.03 0.02 0.02 0.01 0.01 0.00 0.00 0.00 0.00 0.00 0.00 0.00 0.00 0.00 0.00 0.00 0.00 0.00 0.00 0.00 0.00 0.00 0.00 0.00 0.01 0.01 0.01 0.01 0.01 0.01 0.02 0.05 0.08 0.11
0.11 0.12 0.12 0.11 0.09 0.09 0.07 0.06 0.04 0.02 0.01 0.01 0.01 0.00 0.00 0.00 0.00 0.00 0.00 0.00 0.00 0.00 0.00 0.00 0.00 0.00 0.00 0.00 0.00 0.00 0.00 0.00 0.00 0.01 0.02 0.01 0.01 0.01 0.01 0.02 0.04 0.08 0.12
0.08 0.10 0.10 0.08 0.06 0.05 0.05 0.06 0.04 0.02 0.01 0.01 0.00 0.00 0.00 0.00 0.00 0.00 0.00 0.00 0.00 0.00 0.00 0.00 0.00 0.00 0.00 0.00 0.00 0.00 0.00 0.00 0.00 0.00 0.01 0.01 0.00 0.00 0.01 0.02 0.03 0.07 0.14
0.06 0.09 0.08 0.06 0.05 0.04 0.04 0.04 0.04 0.04 0.02 0.01 0.00 0.00 0.00 0.00 0.00 0.00 0.00 0.00 0.00 0.00 0.00 0.00 0.00 0.00 0.00 0.00 0.00 0.00 0.00 0.00 0.00 0.00 0.00 0.00 0.00 0.00 0.00 0.01 0.03 0.05 0.12
0.05 0.06 0.05 0.04 0.05 0.04 0.04 0.03 0.03 0.03 0.02 0.01 0.00 0.00 0.00 0.00 0.00 0.00 0.00 0.00 0.00 0.00 0.00 0.00 0.00 0.00 0.00 0.00 0.00 0.00 0.00 0.00 0.00 0.01 0.01 0.01 0.01 0.00 0.00 0.01 0.02 0.05 0.09
0.04 0.04 0.04 0.05 0.05 0.05 0.04 0.03 0.03 0.02 0.02 0.01 0.00 0.00 0.00 0.00 0.00 0.00 0.00 0.00 0.00 0.00 0.00 0.00 0.00 0.00 0.00 0.00 0.00 0.00 0.00 0.00 0.00 0.00 0.00 0.00 0.00 0.00 0.00 0.01 0.02 0.03 0.05
0.03 0.04 0.05 0.05 0.03 0.02 0.03 0.03 0.03 0.02 0.01 0.01 0.01 0.00 0.00 0.00 0.00 0.00 0.00 0.00 0.00 0.00 0.00 0.00 0.00 0.00 0.00 0.00 0.00 0.00 0.00 0.00 0.00 0.00 0.00 0.00 0.00 0.00 0.00 0.01 0.02 0.03 0.04
0.03 0.05 0.05 0.04 0.02 0.02 0.03 0.03 0.02 0.02 0.01 0.01 0.01 0.01 0.00 0.00 0.00 0.00 0.00 0.00 0.00 0.00 0.00 0.00 0.00 0.00 0.00 0.00 0.00 0.00 0.00 0.00 0.00 0.00 0.00 0.00 0.00 0.00 0.01 0.01 0.02 0.02 0.03
0.03 0.04 0.04 0.04 0.03 0.02 0.03 0.04 0.03 0.02 0.02 0.01 0.01 0.01 0.00 0.00 0.00 0.00 0.00 0.00 0.00 0.00 0.00 0.00 0.00 0.00 0.00 0.00 0.00 0.00 0.00 0.00 0.00 0.00 0.00 0.00 0.00 0.00 0.01 0.01 0.01 0.02 0.03
0.03 0.03 0.03 0.03 0.03 0.02 0.02 0.03 0.03 0.03 0.02 0.01 0.01 0.01 0.00 0.00 0.00 0.00 0.00 0.00 0.00 0.00 0.00 0.00 0.00 0.00 0.00 0.00 0.00 0.00 0.00 0.00 0.00 0.00 0.00 0.00 0.00 0.00 0.01 0.01 0.02 0.02 0.02
0.03 0.03 0.03 0.02 0.02 0.01 0.01 0.00 0.00 0.01 0.00 0.00 0.00 0.00 0.00 0.00 0.00 0.00 0.00 0.00 0.00 0.00 0.00 0.00 0.00 0.00 0.00 0.00 0.00 0.00 0.00 0.00 0.00 0.00 0.00 0.00 0.00 0.00 0.01 0.01 0.02 0.03 0.04
0.02 0.03 0.03 0.02 0.01 0.01 0.01 0.00 0.00 0.00 0.00 0.00 0.00 0.00 0.00 0.00 0.00 0.00 0.00 0.00 0.00 0.00 0.00 0.00 0.00 0.00 0.00 0.00 0.00 0.00 0.00 0.00 0.00 0.00 0.00 0.00 0.00 0.00 0.01 0.01 0.01 0.02 0.03
0.02 0.02 0.02 0.02 0.02 0.01 0.00 0.00 0.00 0.00 0.00 0.00 0.00 0.00 0.00 0.00 0.00 0.00 0.00 0.00 0.00 0.00 0.00 0.00 0.00 0.00 0.00 0.00 0.00 0.00 0.00 0.00 0.00 0.00 0.00 0.00 0.00 0.00 0.01 0.01 0.01 0.01 0.02
0.01 0.01 0.01 0.01 0.01 0.01 0.00 0.00 0.00 0.00 0.00 0.00 0.00 0.00 0.00 0.00 0.00 0.00 0.00 0.00 0.00 0.00 0.00 0.00 0.00 0.00 0.00 0.00 0.00 0.00 0.00 0.00 0.00 0.00 0.00 0.00 0.00 0.00 0.00 0.01 0.01 0.00 0.00
0.01 0.01 0.01 0.01 0.01 0.00 0.00 0.00 0.00 0.00 0.00 0.00 0.00 0.00 0.00 0.00 0.00 0.00 0.00 0.00 0.00 0.00 0.00 0.00 0.00 0.00 0.00 0.00 0.00 0.00 0.00 0.00 0.00 0.00 0.00 0.00 0.00 0.00 0.00 0.00 0.00 0.00 0.00
0.00 0.00 0.00 0.00 0.01 0.00 0.00 0.00 0.00 0.00 0.00 0.00 0.00 0.00 0.00 0.00 0.00 0.00 0.00 0.00 0.00 0.00 0.00 0.00 0.00 0.00 0.00 0.00 0.00 0.00 0.00 0.00 0.00 0.00 0.00 0.00 0.00 0.00 0.00 0.00 0.00 0.00 0.00
0.00 0.00 0.00 0.00 0.00 0.00 0.00 0.00 0.00 0.00 0.00 0.00 0.00 0.00 0.00 0.00 0.00 0.00 0.00 0.00 0.00 0.00 0.00 0.00 0.00 0.00 0.00 0.00 0.00 0.00 0.00 0.00 0.00 0.00 0.00 0.00 0.00 0.00 0.00 0.00 0.00 0.00 0.00
0.00 0.00 0.00 0.00 0.00 0.00 0.00 0.00 0.00 0.00 0.00 0.00 0.00 0.00 0.00 0.00 0.00 0.00 0.00 0.00 0.00 0.00 0.00 0.00 0.00 0.00 0.00 0.00 0.00 0.00 0.00 0.00 0.00 0.00 0.00 0.00 0.00 0.00 0.00 0.00 0.00 0.00 0.00
0.00 0.00 0.00 0.00 0.00 0.00 0.00 0.00 0.00 0.00 0.00 0.00 0.00 0.00 0.00 0.00 0.00 0.00 0.00 0.00 0.00 0.00 0.00 0.00 0.00 0.00 0.00 0.00 0.00 0.00 0.00 0.00 0.00 0.00 0.00 0.00 0.00 0.00 0.00 0.00 0.00 0.00 0.00
0.00 0.00 0.00 0.00 0.00 0.00 0.00 0.00 0.00 0.00 0.00 0.00 0.00 0.00 0.00 0.00 0.00 0.00 0.00 0.00 0.00 0.00 0.00 0.00 0.00 0.00 0.00 0.00 0.00 0.00 0.00 0.00 0.00 0.00 0.00 0.00 0.00 0.00 0.00 0.00 0.00 0.00 0.00
0.00 0.00 0.00 0.00 0.00 0.00 0.00 0.00 0.00 0.00 0.00 0.00 0.00 0.00 0.00 0.00 0.00 0.00 0.00 0.00 0.00 0.00 0.00 0.00 0.00 0.00 0.00 0.00 0.00 0.00 0.00 0.00 0.00 0.00 0.00 0.00 0.00 0.00 0.00 0.00 0.00 0.00 0.00
MSLP
1009.89 1009.81 1009.74 1009.71 1009.70 1009.73 1009.80 1009.91 1010.06 1010.24 1010.42 1010.59 1010.74 1010.84 1010.91 1010.94 1010.96 1010.98 1011.03 1011.11 1011.23 1011.39 1011.57 1011.73 1011.86 1011.93 1011.92 1011.82 1011.63 1011.36 1011.04 1010.68 1010.30 1009.93 1009.58 1009.26 1009.00 1008.80 1008.65 1008.56 1008.52 1008.50 1008.48
1010.46 1010.42 1010.39 1010.37 1010.36 1010.37 1010.41 1010.47 1010.56 1010.67 1010.80 1010.92 1011.03 1011.12 1011.18 1011.23 1011.27 1011.31 1011.38 1011.46 1011.58 1011.71 1011.84 1011.95 1012.03 1012.04 1011.99 1011.86 1011.66 1011.39 1011.08 1010.73 1010.36 1009.99 1009.64 1009.31 1009.02 1008.77 1008.56 1008.40 1008.27 1008.16 1008.05
1010.94 1010.96 1010.98 1011.00 1011.01 1011.02 1011.04 1011.07 1011.12 1011.18 1011.25 1011.33 1011.40 1011.47 1011.53 1011.58 1011.64 1011.71 1011.79 1011.89 1012.00 1012.11 1012.21 1012.29 1012.32 1012.29 1012.20 1012.05 1011.83 1011.56 1011.25 1010.91 1010.56 1010.20 1009.85 1009.50 1009.18 1008.88 1008.61 1008.37 1008.16 1007.97 1007.78
1011.24 1011.33 1011.40 1011.46 1011.51 1011.55 1011.58 1011.61 1011.64 1011.67 1011.71 1011.76 1011.81 1011.86 1011.92 1011.98 1012.06 1012.15 1012.26 1012.37 1012.49 1012.60 1012.68 1012.73 1012.73 1012.68 1012.56 1012.38 1012.15 1011.88 1011.58 1011.25 1010.91 1010.55 1010.19 1009.84 1009.48 1009.14 1008.82 1008.52 1008.24 1007.97 1007.73
1011.29 1011.43 1011.57 1011.69 1011.79 1011.87 1011.94 1012.00 1012.04 1012.08 1012.12 1012.16 1012.20 1012.25 1012.32 1012.40 1012.50 1012.61 1012.74 1012.88 1013.01 1013.13 1013.21 1013.25 1013.23 1013.16 1013.02 1012.83 1012.60 1012.32 1012.02 1011.70 1011.36 1011.01 1010.64 1010.27 1009.89 1009.52 1009.15 1008.80 1008.47 1008.16 1007.88
1011.10 1011.28 1011.47 1011.64 1011.81 1011.95 1012.08 1012.19 1012.28 1012.35 1012.42 1012.48 1012.54 1012.61 1012.69 1012.79 1012.91 1013.05 1013.21 1013.36 1013.51 1013.64 1013.73 1013.76 1013.74 1013.66 1013.52 1013.32 1013.08 1012.81 1012.51 1012.18 1011.84 1011.49 1011.12 1010.73 1010.34 1009.94 1009.54 1009.16 1008.80 1008.48 1008.18
1010.73 1010.94 1011.16 1011.39 1011.61 1011.82 1012.01 1012.19 1012.34 1012.48 1012.59 1012.70 1012.79 1012.89 1013.00 1013.13 1013.27 1013.43 1013.61 1013.78 1013.94 1014.08 1014.17 1014.21 1014.19 1014.11 1013.96 1013.77 1013.52 1013.25 1012.95 1012.62 1012.28 1011.92 1011.54 1011.15 1010.74 1010.33 1009.92 1009.53 1009.17 1008.84 1008.56
1010.30 1010.52 1010.76 1011.01 1011.27 1011.53 1011.79 1012.04 1012.26 1012.46 1012.64 1012.80 1012.95 1013.09 1013.23 1013.39 1013.55 1013.73 1013.92 1014.10 1014.26 1014.40 1014.49 1014.53 1014.51 1014.42 1014.28 1014.09 1013.85 1013.57 1013.27 1012.95 1012.61 1012.25 1011.87 1011.47 1011.06 1010.65 1010.24 1009.85 1009.49 1009.18 1008.92
1009.92 1010.12 1010.36 1010.62 1010.90 1011.20 1011.50 1011.79 1012.08 1012.35 1012.59 1012.81 1013.02 1013.21 1013.39 1013.57 1013.76 1013.95 1014.13 1014.31 1014.47 1014.59 1014.67 1014.70 1014.67 1014.59 1014.44 1014.25 1014.02 1013.75 1013.46 1013.15 1012.81 1012.45 1012.08 1011.68 1011.28 1010.87 1010.47 1010.09 1009.75 1009.45 1009.21
1009.64 1009.83 1010.04 1010.29 1010.57 1010.88 1011.20 1011.53 1011.86 1012.17 1012.47 1012.76 1013.02 1013.26 1013.48 1013.70 1013.90 1014.10 1014.28 1014.44 1014.58 1014.68 1014.74 1014.75 1014.70 1014.61 1014.47 1014.28 1014.06 1013.81 1013.54 1013.24 1012.91 1012.57 1012.20 1011.82 1011.42 1011.02 1010.63 1010.26 1009.93 1009.64 1009.42
1009.47 1009.65 1009.85 1010.07 1010.33 1010.62 1010.94 1011.28 1011.63 1011.98 1012.32 1012.66 1012.97 1013.27 1013.54 1013.79 1014.01 1014.21 1014.39 1014.53 1014.64 1014.71 1014.73 1014.71 1014.65 1014.55 1014.41 1014.23 1014.03 1013.80 1013.55 1013.28 1012.98 1012.66 1012.31 1011.94 1011.55 1011.16 1010.77 1010.41 1010.08 1009.79 1009.56
1009.38 1009.55 1009.73 1009.93 1010.16 1010.42 1010.72 1011.05 1011.41 1011.78 1012.16 1012.54 1012.91 1013.26 1013.58 1013.87 1014.12 1014.33 1014.50 1014.62 1014.70 1014.73 1014.72 1014.67 1014.58 1014.47 1014.33 1014.17 1013.99 1013.80 1013.58 1013.35 1013.08 1012.79 1012.46 1012.11 1011.73 1011.34 1010.95 1010.58 1010.24 1009.94 1009.68
1009.27 1009.46 1009.64 1009.82 1010.03 1010.26 1010.53 1010.84 1011.19 1011.58 1011.99 1012.41 1012.83 1013.24 1013.61 1013.95 1014.23 1014.46 1014.63 1014.73 1014.78 1014.78 1014.73 1014.65 1014.54 1014.41 1014.28 1014.14 1013.99 1013.84 1013.67 1013.48 1013.26 1013.00 1012.71 1012.37 1012.00 1011.61 1011.21 1010.82 1010.46 1010.13 1009.84
1009.04 1009.28 1009.48 1009.67 1009.86 1010.08 1010.33 1010.62 1010.97 1011.37 1011.80 1012.27 1012.74 1013.21 1013.64 1014.03 1014.35 1014.60 1014.77 1014.87 1014.89 1014.86 1014.77 1014.66 1014.53 1014.40 1014.28 1014.16 1014.05 1013.95 1013.83 1013.70 1013.53 1013.31 1013.05 1012.73 1012.37 1011.98 1011.56 1011.15 1010.75 1010.39 1010.06
1008.65 1008.94 1009.19 1009.40 1009.61 1009.82 1010.07 1010.36 1010.71 1011.12 1011.59 1012.10 1012.62 1013.14 1013.63 1014.07 1014.43 1014.71 1014.89 1014.98 1014.99 1014.92 1014.82 1014.68 1014.54 1014.41 1014.30 1014.21 1014.15 1014.10 1014.04 1013.96 1013.85 1013.68 1013.45 1013.16 1012.81 1012.41 1011.99 1011.55 1011.12 1010.72 1010.35
1008.04 1008.41 1008.72 1008.98 1009.22 1009.46 1009.72 1010.02 1010.39 1010.83 1011.32 1011.87 1012.44 1013.01 1013.55 1014.03 1014.43 1014.73 1014.92 1015.00 1015.00 1014.91 1014.79 1014.64 1014.49 1014.37 1014.28 1014.23 1014.22 1014.22 1014.23 1014.22 1014.16 1014.04 1013.86 1013.59 1013.26 1012.87 1012.44 1011.99 1011.54 1011.11 1010.71
1007.25 1007.69 1008.08 1008.40 1008.69 1008.97 1009.27 1009.60 1010.00 1010.46 1010.98 1011.56 1012.17 1012.78 1013.35 1013.86 1014.29 1014.60 1014.79 1014.87 1014.85 1014.76 1014.62 1014.46 1014.32 1014.21 1014.15 1014.15 1014.19 1014.26 1014.33 1014.38 1014.39 1014.33 1014.19 1013.97 1013.66 1013.29 1012.87 1012.42 1011.96 1011.52 1011.10
1006.33 1006.85 1007.30 1007.70 1008.05 1008.38 1008.72 1009.09 1009.51 1010.00 1010.55 1011.15 1011.78 1012.41 1013.00 1013.53 1013.95 1014.27 1014.45 1014.53 1014.49 1014.39 1014.25 1014.10 1013.97 1013.89 1013.87 1013.91 1014.01 1014.14 1014.28 1014.41 1014.48 1014.49 1014.41 1014.23 1013.97 1013.63 1013.24 1012.81 1012.37 1011.93 1011.51
1005.37 1005.93 1006.44 1006.90 1007.31 1007.69 1008.07 1008.48 1008.94 1009.45 1010.02 1010.63 1011.27 1011.89 1012.48 1013.00 1013.41 1013.71 1013.88 1013.94 1013.90 1013.80 1013.66 1013.52 1013.42 1013.38 1013.40 1013.50 1013.66 1013.86 1014.08 1014.27 1014.41 1014.49 1014.47 1014.36 1014.16 1013.88 1013.53 1013.14 1012.73 1012.32 1011.93
1004.42 1005.01 1005.56 1006.05 1006.50 1006.93 1007.35 1007.80 1008.28 1008.80 1009.38 1009.99 1010.61 1011.22 1011.78 1012.27 1012.66 1012.93 1013.08 1013.13 1013.09 1012.99 1012.87 1012.76 1012.70 1012.70 1012.78 1012.95 1013.17 1013.44 1013.72 1013.99 1014.20 1014.35 1014.41 1014.37 1014.24 1014.02 1013.74 1013.42 1013.06 1012.70 1012.33
1003.54 1004.12 1004.67 1005.19 1005.66 1006.12 1006.57 1007.03 1007.53 1008.06 1008.63 1009.23 1009.82 1010.40 1010.92 1011.37 1011.72 1011.96 1012.10 1012.13 1012.09 1012.01 1011.92 1011.86 1011.85 1011.91 1012.06 1012.29 1012.58 1012.92 1013.27 1013.60 1013.88 1014.10 1014.23 1014.27 1014.22 1014.09 1013.89 1013.64 1013.35 1013.05 1012.73
1002.74 1003.29 1003.82 1004.32 1004.80 1005.26 1005.73 1006.20 1006.71 1007.24 1007.79 1008.36 1008.93 1009.46 1009.94 1010.34 1010.65 1010.86 1010.97 1011.01 1010.98 1010.93 1010.89 1010.88 1010.94 1011.08 1011.30 1011.59 1011.96 1012.36 1012.77 1013.16 1013.51 1013.79 1013.99 1014.11 1014.14 1014.09 1013.98 1013.81 1013.61 1013.37 1013.11
1002.02 1002.51 1002.99 1003.46 1003.92 1004.37 1004.83 1005.31 1005.81 1006.33 1006.87 1007.42 1007.94 1008.43 1008.86 1009.22 1009.49 1009.68 1009.78 1009.82 1009.83 1009.83 1009.85 1009.91 1010.05 1010.26 1010.56 1010.93 1011.35 1011.81 1012.28 1012.72 1013.12 1013.45 1013.72 1013.90 1014.00 1014.04 1014.01 1013.93 1013.81 1013.64 1013.44
1001.34 1001.75 1002.16 1002.58 1003.00 1003.44 1003.89 1004.36 1004.86 1005.37 1005.89 1006.41 1006.91 1007.36 1007.74 1008.06 1008.31 1008.47 1008.58 1008.65 1008.69 1008.75 1008.84 1008.99 1009.22 1009.52 1009.89 1010.33 1010.82 1011.33 1011.83 1012.31 1012.74 1013.12 1013.43 1013.66 1013.83 1013.93 1013.98 1013.98 1013.93 1013.83 1013.69
1000.65 1000.97 1001.31 1001.67 1002.05 1002.46 1002.90 1003.37 1003.86 1004.37 1004.88 1005.38 1005.85 1006.26 1006.62 1006.91 1007.13 1007.29 1007.42 1007.51 1007.61 1007.74 1007.92 1008.16 1008.48 1008.86 1009.32 1009.83 1010.37 1010.91 1011.45 1011.95 1012.40 1012.79 1013.13 1013.40 1013.61 1013.77 1013.88 1013.94 1013.96 1013.93 1013.85
999.91 1000.14 1000.41 1000.71 1001.05 1001.44 1001.88 1002.35 1002.84 1003.35 1003.86 1004.35 1004.79 1005.19 1005.52 1005.79 1006.00 1006.17 1006.31 1006.45 1006.62 1006.82 1007.09 1007.42 1007.83 1008.31 1008.84 1009.41 1010.00 1010.57 1011.12 1011.63 1012.09 1012.48 1012.82 1013.11 1013.34 1013.54 1013.69 1013.81 1013.89 1013.92 1013.89
Thickness
5666 5664 5662 5662 5662 5662 5662 5663 5663 5665 5667 5669 5671 5672 5671 5672 5674 5676 5679 5677 5676 5676 5675 5674 5672 5672 5674 5675 5675 5675 5675 5674 5673 5679 5682 5682 5680 5679 5680 5678 5676 5674 5674
5651 5648 5646 5644 5644 5644 5645 5646 5647 5649 5652 5654 5657 5658 5660 5662 5664 5666 5667 5667 5666 5665 5664 5663 5662 5663 5661 5663 5663 5664 5665 5664 5664 5664 5669 5672 5672 5672 5673 5672 5671 5671 5669
5640 5636 5633 5631 5629 5628 5630 5631 5632 5635 5637 5639 5642 5645 5648 5651 5654 5655 5656 5655 5655 5654 5653 5652 5651 5651 5650 5651 5651 5654 5656 5659 5657 5658 5660 5662 5663 5664 5665 5666 5667 5665 5665
5631 5627 5624 5622 5619 5619 5619 5619 5619 5622 5624 5626 5629 5632 5636 5640 5643 5644 5644 5643 5642 5642 5641 5640 5639 5638 5637 5638 5640 5641 5644 5646 5648 5650 5651 5651 5652 5653 5655 5656 5658 5659 5659
5626 5621 5617 5615 5613 5611 5611 5610 5610 5612 5615 5617 5620 5623 5627 5630 5633 5633 5633 5632 5631 5630 5629 5628 5625 5623 5621 5623 5627 5628 5631 5634 5638 5638 5638 5639 5638 5639 5640 5643 5646 5649 5651
5623 5619 5615 5611 5608 5606 5605 5604 5603 5604 5606 5608 5612 5615 5618 5620 5616 5619 5622 5621 5621 5620 5618 5618 5617 5615 5613 5612 5611 5611 5612 5616 5619 5621 5623 5622 5622 5625 5628 5632 5635 5637 5639
5621 5617 5613 5609 5605 5604 5602 5601 5599 5599 5599 5601 5604 5606 5606 5604 5604 5607 5610 5612 5611 5609 5608 5608 5611 5607 5607 5608 5606 5603 5602 5600 5599 5602 5606 5604 5608 5610 5613 5620 5622 5624 5625
5620 5616 5612 5608 5605 5602 5600 5598 5596 5596 5595 5596 5598 5599 5598 5595 5594 5597 5599 5603 5602 5600 5600 5599 5599 5597 5595 5594 5599 5598 5598 5595 5592 5593 5591 5591 5593 5594 5598 5606 5611 5617 5618
5619 5615 5611 5608 5604 5601 5598 5595 5594 5592 5591 5592 5593 5593 5592 5588 5587 5589 5592 5595 5594 5594 5593 5590 5590 5589 5582 5582 5588 5587 5586 5585 5582 5579 5577 5578 5578 5580 5584 5594 5599 5604 5606
5618 5615 5611 5607 5603 5600 5597 5594 5592 5590 5588 5589 5587 5588 5587 5585 5580 5582 5584 5593 5590 5590 5586 5584 5576 5576 5573 5572 5577 5576 5573 5572 5573 5575 5572 5571 5573 5575 5576 5579 5584 5588 5592
5618 5613 5608 5605 5602 5599 5595 5592 5590 5588 5586 5585 5582 5582 5582 5579 5575 5576 5579 5586 5587 5586 5586 5584 5575 5567 5565 5564 5564 5563 5559 5558 5564 5565 5565 5564 5564 5565 5567 5568 5570 5573 5577
5615 5610 5607 5603 5601 5598 5593 5590 5588 5585 5582 5580 5579 5578 5577 5575 5573 5571 5571 5573 5574 5578 5578 5577 5568 5560 5558 5556 5556 5552 5551 5551 5557 5556 5554 5553 5552 5552 5554 5556 5558 5561 5563
5612 5609 5605 5602 5600 5597 5593 5589 5586 5584 5585 5583 5579 5578 5577 5574 5568 5565 5565 5566 5566 5570 5569 5561 5558 5555 5552 5552 5547 5546 5547 5549 5547 5546 5544 5542 5542 5542 5543 5546 5550 5553 5556
5610 5607 5604 5601 5598 5596 5593 5591 5589 5587 5586 5583 5581 5578 5576 5573 5572 5569 5568 5565 5561 5564 5564 5557 5552 5551 5549 5546 5545 5545 5544 5539 5536 5535 5534 5533 5534 5534 5535 5536 5539 5542 5546
5609 5607 5604 5601 5598 5595 5593 5591 5589 5588 5586 5583 5582 5580 5576 5573 5568 5564 5568 5567 5566 5563 5560 5560 5559 5556 5553 5549 5545 5540 5537 5533 5530 5527 5526 5525 5525 5525 5525 5526 5526 5530 5533
5607 5605 5603 5601 5598 5595 5592 5588 5578 5579 5576 5574 5573 5575 5573 5568 5560 5557 5554 5553 5552 5550 5553 5558 5555 5552 5549 5545 5541 5536 5531 5526 5522 5520 5518 5516 5515 5515 5515 5516 5517 5519 5520
5606 5604 5602 5601 5598 5595 5592 5589 5584 5573 5567 5566 5566 5565 5564 5557 5554 5550 5548 5546 5545 5544 5551 5553 5550 5547 5544 5540 5535 5530 5525 5520 5514 5513 5510 5507 5506 5506 5505 5506 5506 5507 5508
5604 5601 5599 5598 5596 5594 5592 5590 5587 5582 5575 5570 5561 5557 5554 5551 5548 5544 5542 5540 5545 5544 5551 5550 5547 5543 5539 5534 5530 5525 5520 5516 5510 5506 5503 5499 5497 5496 5496 5495 5496 5494 5496
5602 5601 5598 5597 5594 5593 5591 5588 5587 5583 5580 5575 5569 5557 5549 5544 5540 5538 5536 5543 5551 5550 5550 5548 5545 5541 5536 5531 5526 5521 5516 5511 5504 5500 5497 5492 5490 5489 5487 5486 5486 5484 5484
5599 5597 5594 5593 5592 5590 5588 5586 5584 5582 5579 5576 5572 5567 5555 5548 5547 5544 5540 5545 5548 5550 5548 5546 5543 5539 5534 5529 5523 5518 5513 5508 5501 5497 5492 5487 5484 5481 5480 5478 5478 5478 5478
5599 5595 5587 5589 5589 5588 5586 5584 5582 5580 5577 5575 5573 5570 5562 5557 5556 5555 5553 5550 5549 5548 5547 5544 5542 5538 5533 5527 5522 5516 5509 5505 5499 5493 5488 5483 5478 5475 5472 5471 5470 5469 5468
5598 5596 5589 5588 5588 5586 5584 5582 5580 5578 5576 5573 5570 5566 5557 5557 5559 5559 5557 5555 5553 5550 5548 5544 5541 5538 5533 5528 5522 5514 5509 5502 5496 5489 5483 5478 5472 5468 5466 5463 5461 5460 5459
5598 5595 5591 5588 5586 5582 5579 5580 5578 5576 5574 5571 5569 5567 5560 5556 5557 5557 5557 5556 5554 5552 5549 5545 5540 5538 5534 5527 5520 5513 5508 5501 5493 5486 5478 5472 5466 5462 5458 5454 5451 5450 5449
5597 5594 5592 5589 5586 5584 5580 5578 5577 5575 5573 5571 5568 5566 5564 5559 5557 5556 5555 5555 5553 5551 5547 5544 5540 5537 5531 5525 5519 5512 5506 5498 5489 5481 5472 5466 5460 5455 5450 5446 5443 5441 5439
5597 5594 5592 5589 5587 5584 5581 5578 5576 5574 5572 5570 5567 5565 5563 5561 5559 5557 5555 5553 5551 5549 5546 5542 5539 5535 5530 5524 5517 5510 5501 5491 5482 5475 5467 5461 5455 5448 5443 5439 5435 5432 5430
5595 5595 5593 5591 5588 5585 5583 5579 5576 5574 5571 5569 5567 5565 5563 5561 5560 5558 5556 5553 5551 5548 5544 5541 5538 5533 5528 5522 5514 5505 5494 5485 5476 5467 5461 5457 5450 5443 5437 5432 5428 5425 5423